Regional Weather Roundup
Issued by NWS

Home | Current Version | Previous Version | Graphics & Text | Print | Product List | Glossary On
Versions: 1 2 3 4 5 6 7 8 9 10 11 12 13 14 15 16 17 18 19 20 21 22 23 24 25 26 27 28 29 30 31 32 33 34 35 36 37 38 39 40 41 42 43 44 45 46 47 48 49 50
000
ASUS43 KTOP 101008
RWRKS

WEATHER ROUNDUP FOR KANSAS
NATIONAL WEATHER SERVICE GOODLAND KS
400 AM CST SAT DEC 10 2016

NOTE:  "FAIR" INDICATES FEW OR NO CLOUDS BELOW 12,000 FEET WITH NO
SIGNIFICANT WEATHER AND/OR OBSTRUCTIONS TO VISIBILITY.

KSZ001>006-013>018-027>032-041>047-101100-
NORTHWEST KANSAS

CITY           SKY/WX    TMP DP  RH WIND       PRES   REMARKS
GOODLAND       CLOUDY    20  17  88 S13       30.06F WCI   7
HAYS           CLOUDY    20  15  81 S9        30.27F
HILL CITY      CLOUDY    22  14  71 SE5       30.25F
RUSSELL        CLOUDY    22  14  71 SE14      30.27F WCI   9
$$

KSZ061>065-074>080-084>089-101100-
SOUTHWEST KANSAS

CITY           SKY/WX    TMP DP  RH WIND       PRES   REMARKS
DODGE CITY     CLOUDY    19  14  81 S12       30.24F WCI   7
ELKHART          N/A     19  11  71 SE10        N/A  WCI   7
GARDEN CITY    CLOUDY    18  14  84 SE12      30.18F WCI   5
GREAT BEND     CLOUDY    20  15  81 SE9       30.31F
LIBERAL        CLOUDY    21  12  68 E9        30.17F
PRATT          CLOUDY    15  10  79 SE6       30.31F
$$

KSZ066>073-081>083-090>101-101100-
SOUTHEAST KANSAS

CITY           SKY/WX    TMP DP  RH WIND       PRES   REMARKS
CHANUTE        CLOUDY    30  18  60 SE6       30.46F
COFFEYVILLE    CLOUDY    31  22  69 E5        30.47F
HUTCHINSON     CLOUDY    28  14  55 SE6       30.36F
MEDICINE LODGE   N/A     20  13  74 SE8       30.35F
NEWTON         CLOUDY    19  14  81 SE9       30.38F
PARSONS        CLOUDY    31  20  63 CALM      30.47F
WICHITA INTL   CLOUDY    21  14  74 SE7       30.39F
WICHITA JABRA  CLOUDY    20  13  74 SE3       30.39F
WICHITA MCCONL CLOUDY    21  14  73 SE6       30.39F
WINFIELD       CLOUDY    23  16  74 E6        30.42F
$$

KSZ007>012-019>026-033>040-048>060-102>105-101100-
NORTHEAST KANSAS

CITY           SKY/WX    TMP DP  RH WIND       PRES   REMARKS
CONCORDIA      PTCLDY    21  17  84 E3        30.38F
EMPORIA        PTCLDY    21  16  81 SE7       30.42F
LAWRENCE       CLOUDY    25  20  81 E5        30.48F
MANHATTAN      CLOUDY    28  16  60 SE3       30.43F
MARYSVILLE     CLOUDY    27  18  69 CALM      30.43S
OLATHE IND     CLOUDY    25  15  66 SE5       30.47F
OLATHE EXE     MOCLDY    23  14  68 SE3       30.47F
SALINA         CLOUDY    24  15  68 SE8       30.39F
TOPEKA BILLARD CLOUDY    25  18  74 E3        30.46F
TOPEKA FORBES  CLOUDY    25  19  78 E3        30.44F
$$




USA.gov is the U.S. government's official web portal to all federal, state and local government web resources and services.